When you browse on this site, cookies collect data to enhance your experience and personalize the content and advertising you see.
Visit our Privacy Policy to learn more. By continuing to use the site, you agree to this use of cookies and data.
  • In Spain
  • List of Countries
  • For 7 days
  • Water Temperature
  • Weather Map
  • Weather Widgets
  • user-avatar
    Login

    Hourly Weather Leicester

    Today, 23 September, Monday

    Time Temperature Precipitation Wind Pressure Humidity
    00:00 +13°C° 0 mm 3 mps 748 mmHg 94%
    01:00 +12°C° 0 mm 3 mps 748 mmHg 95%
    02:00 +12°C° 0 mm 3 mps 748 mmHg 95%
    03:00 +12°C° 0 mm 3 mps 748 mmHg 96%
    04:00 +12°C° 0 mm 3 mps 748 mmHg 95%
    05:00 +12°C° 0 mm 3 mps 749 mmHg 94%
    06:00 +12°C° 0 mm 3 mps 749 mmHg 93%
    07:00 +13°C° 0 mm 4 mps 750 mmHg 87%
    08:00 +14°C° 0 mm 4 mps 750 mmHg 82%
    09:00 +15°C° 0 mm 5 mps 750 mmHg 77%
    10:00 +16°C° 0 mm 5 mps 750 mmHg 71%
    11:00 +17°C° 0 mm 5 mps 750 mmHg 65%
    12:00 +19°C° 0 mm 5 mps 751 mmHg 60%
    13:00 +19°C° 0 mm 5 mps 750 mmHg 60%
    14:00 +19°C° 0 mm 6 mps 750 mmHg 61%
    15:00 +19°C° 0 mm 6 mps 750 mmHg 62%
    16:00 +17°C° 0.2 mm 6 mps 750 mmHg 69%
    17:00 +16°C° 0.2 mm 6 mps 749 mmHg 76%
    18:00 +15°C° 0.2 mm 6 mps 749 mmHg 83%
    19:00 +15°C° 0.1 mm 6 mps 749 mmHg 84%
    20:00 +15°C° 0.1 mm 6 mps 749 mmHg 86%
    21:00 +15°C° 0.1 mm 7 mps 749 mmHg 87%
    22:00 +15°C° 0.1 mm 6 mps 749 mmHg 89%
    23:00 +15°C° 0.1 mm 6 mps 748 mmHg 90%

    Tomorrow, 24 September, Tuesday

    Time Temperature Precipitation Wind Pressure Humidity
    00:00 +16°C° 0.1 mm 5 mps 748 mmHg 92%
    01:00 +16°C° 0.1 mm 5 mps 747 mmHg 92%
    02:00 +17°C° 0.1 mm 4 mps 747 mmHg 92%
    03:00 +17°C° 0.1 mm 4 mps 746 mmHg 92%
    04:00 +17°C° 0.3 mm 4 mps 745 mmHg 93%
    05:00 +17°C° 0.3 mm 4 mps 745 mmHg 93%
    06:00 +17°C° 0.3 mm 4 mps 744 mmHg 94%
    07:00 +16°C° 3.5 mm 5 mps 743 mmHg 93%
    08:00 +16°C° 3.5 mm 5 mps 743 mmHg 93%
    09:00 +16°C° 3.5 mm 6 mps 743 mmHg 92%
    10:00 +16°C° 2.4 mm 6 mps 742 mmHg 92%
    11:00 +15°C° 2.4 mm 6 mps 742 mmHg 91%
    12:00 +15°C° 2.4 mm 6 mps 742 mmHg 91%
    13:00 +15°C° 0.6 mm 5 mps 742 mmHg 87%
    14:00 +16°C° 0.6 mm 5 mps 742 mmHg 84%
    15:00 +16°C° 0.6 mm 5 mps 742 mmHg 80%
    16:00 +17°C° 0.1 mm 4 mps 742 mmHg 81%
    17:00 +15°C° 0.1 mm 4 mps 742 mmHg 82%
    18:00 +14°C° 0.1 mm 4 mps 742 mmHg 83%
    19:00 +14°C° 0.1 mm 4 mps 743 mmHg 86%
    20:00 +14°C° 0.1 mm 4 mps 743 mmHg 88%
    21:00 +13°C° 0.1 mm 5 mps 743 mmHg 91%
    22:00 +13°C° 0.1 mm 5 mps 743 mmHg 90%
    23:00 +13°C° 0.1 mm 5 mps 742 mmHg 90%

    Day after tomorrow, 25 September, Wednesday

    Time Temperature Precipitation Wind Pressure Humidity
    00:00 +13°C° 0.1 mm 5 mps 742 mmHg 90%
    01:00 +13°C° 0.2 mm 5 mps 742 mmHg 90%
    02:00 +13°C° 0.2 mm 5 mps 742 mmHg 91%
    03:00 +13°C° 0.2 mm 4 mps 741 mmHg 92%
    04:00 +13°C° 0 mm 4 mps 741 mmHg 93%
    05:00 +13°C° 0 mm 3 mps 741 mmHg 94%
    06:00 +13°C° 0 mm 2 mps 740 mmHg 96%
    07:00 +14°C° 0 mm 2 mps 741 mmHg 93%
    08:00 +15°C° 0 mm 2 mps 741 mmHg 91%
    09:00 +16°C° 0 mm 1 mps 741 mmHg 89%
    10:00 +17°C° 0.1 mm 2 mps 742 mmHg 85%
    11:00 +17°C° 0.1 mm 2 mps 742 mmHg 81%
    12:00 +18°C° 0.1 mm 2 mps 742 mmHg 76%
    13:00 +18°C° 0.2 mm 3 mps 743 mmHg 77%
    14:00 +18°C° 0.2 mm 3 mps 743 mmHg 77%
    15:00 +18°C° 0.2 mm 3 mps 743 mmHg 78%
    16:00 +17°C° 0.1 mm 3 mps 743 mmHg 81%
    17:00 +17°C° 0.1 mm 3 mps 744 mmHg 83%
    18:00 +16°C° 0.1 mm 3 mps 744 mmHg 86%
    19:00 +14°C° 0 mm 3 mps 744 mmHg 88%
    20:00 +14°C° 0 mm 3 mps 744 mmHg 90%
    21:00 +13°C° 0 mm 3 mps 744 mmHg 91%
    22:00 +14°C° 0.6 mm 4 mps 744 mmHg 92%
    23:00 +14°C° 0.6 mm 5 mps 743 mmHg 93%

    26 September, Thursday

    Time Temperature Precipitation Wind Pressure Humidity
    00:00 +15°C° 0.6 mm 6 mps 743 mmHg 94%
    01:00 +15°C° 0.1 mm 6 mps 743 mmHg 92%
    02:00 +16°C° 0.1 mm 6 mps 743 mmHg 90%
    03:00 +16°C° 0.1 mm 7 mps 743 mmHg 88%
    04:00 +16°C° 0.5 mm 6 mps 742 mmHg 90%
    05:00 +15°C° 0.5 mm 6 mps 742 mmHg 91%
    06:00 +15°C° 0.5 mm 5 mps 742 mmHg 93%
    07:00 +15°C° 0.3 mm 6 mps 743 mmHg 86%
    08:00 +16°C° 0.3 mm 7 mps 743 mmHg 80%
    09:00 +16°C° 0.3 mm 7 mps 744 mmHg 73%
    10:00 +16°C° 0 mm 7 mps 744 mmHg 70%
    11:00 +17°C° 0 mm 7 mps 744 mmHg 67%
    12:00 +17°C° 0 mm 7 mps 744 mmHg 65%
    13:00 +17°C° 0.1 mm 7 mps 744 mmHg 66%
    14:00 +16°C° 0.1 mm 7 mps 744 mmHg 68%
    15:00 +16°C° 0.1 mm 6 mps 744 mmHg 69%
    16:00 +16°C° 0 mm 6 mps 744 mmHg 72%
    17:00 +15°C° 0 mm 6 mps 744 mmHg 74%
    18:00 +14°C° 0 mm 6 mps 745 mmHg 77%
    19:00 +14°C° 0 mm 6 mps 745 mmHg 79%
    20:00 +13°C° 0 mm 6 mps 745 mmHg 81%
    21:00 +13°C° 0 mm 5 mps 746 mmHg 83%
    22:00 +13°C° 0.1 mm 5 mps 746 mmHg 83%
    23:00 +13°C° 0.1 mm 5 mps 746 mmHg 84%

    27 September, Friday

    Time Temperature Precipitation Wind Pressure Humidity
    00:00 +13°C° 0.1 mm 5 mps 746 mmHg 84%
    01:00 +13°C° 0.1 mm 5 mps 745 mmHg 83%
    02:00 +13°C° 0.1 mm 5 mps 745 mmHg 82%
    03:00 +13°C° 0.1 mm 5 mps 745 mmHg 81%
    04:00 +13°C° 0.1 mm 5 mps 745 mmHg 82%
    05:00 +13°C° 0.1 mm 5 mps 745 mmHg 83%
    06:00 +12°C° 0.1 mm 5 mps 745 mmHg 84%
    07:00 +13°C° 0.1 mm 6 mps 745 mmHg 81%
    08:00 +14°C° 0.1 mm 6 mps 745 mmHg 79%
    09:00 +14°C° 0.1 mm 7 mps 745 mmHg 76%
    10:00 +15°C° 0.2 mm 7 mps 745 mmHg 73%
    11:00 +15°C° 0.2 mm 8 mps 744 mmHg 70%
    12:00 +16°C° 0.2 mm 8 mps 744 mmHg 68%
    13:00 +15°C° 0.2 mm 8 mps 744 mmHg 69%
    14:00 +15°C° 0.2 mm 8 mps 744 mmHg 70%
    15:00 +15°C° 0.2 mm 8 mps 743 mmHg 72%
    16:00 +13°C° 0.2 mm 8 mps 743 mmHg 75%
    17:00 +13°C° 0.2 mm 8 mps 743 mmHg 78%
    18:00 +12°C° 0.2 mm 7 mps 743 mmHg 81%
    19:00 +12°C° 1.8 mm 7 mps 743 mmHg 84%
    20:00 +12°C° 1.8 mm 7 mps 744 mmHg 87%
    21:00 +11°C° 1.8 mm 6 mps 744 mmHg 90%
    22:00 +11°C° 0.2 mm 6 mps 744 mmHg 89%
    23:00 +10°C° 0.2 mm 5 mps 744 mmHg 88%

    28 September, Saturday

    Time Temperature Precipitation Wind Pressure Humidity
    00:00 +10°C° 0.2 mm 5 mps 744 mmHg 87%
    01:00 +9°C° 0 mm 5 mps 744 mmHg 87%
    02:00 +10°C° 0 mm 4 mps 744 mmHg 88%
    03:00 +8°C° 0 mm 4 mps 744 mmHg 88%
    04:00 +8°C° 0 mm 4 mps 745 mmHg 88%
    05:00 +8°C° 0 mm 4 mps 745 mmHg 88%
    06:00 +8°C° 0 mm 4 mps 745 mmHg 89%
    07:00 +9°C° 0 mm 5 mps 745 mmHg 85%
    08:00 +10°C° 0 mm 6 mps 745 mmHg 81%
    09:00 +11°C° 0 mm 6 mps 746 mmHg 77%
    10:00 +13°C° 0 mm 6 mps 746 mmHg 73%
    11:00 +14°C° 0 mm 6 mps 746 mmHg 69%
    12:00 +15°C° 0 mm 7 mps 746 mmHg 65%
    13:00 +15°C° 0 mm 6 mps 746 mmHg 66%
    14:00 +15°C° 0 mm 6 mps 746 mmHg 67%
    15:00 +15°C° 0 mm 6 mps 746 mmHg 68%
    16:00 +14°C° 0 mm 5 mps 746 mmHg 72%
    17:00 +13°C° 0 mm 4 mps 746 mmHg 76%
    18:00 +12°C° 0 mm 3 mps 747 mmHg 81%
    19:00 +12°C° 0 mm 3 mps 747 mmHg 84%
    20:00 +11°C° 0 mm 3 mps 747 mmHg 87%
    21:00 +11°C° 0 mm 3 mps 747 mmHg 90%
    22:00 +11°C° 0 mm 3 mps 747 mmHg 91%
    23:00 +10°C° 0 mm 3 mps 747 mmHg 92%
    Show more